ARG1422 SABE-SANU

Flight info

Callsign ARG1422
Flight time 1h 35m
Altitude 34000
Route ATOVO4B ATOVO UW5 ROS UT653 PAMAL DCT ISUSA ISUSA2A
Aircraft B738/M-SDE2E3FGHIRWXY/LB1

Departure

Time 2026-05-08 03:52
Airport Aeroparque Jorge Newbery (SABE)

Arrival

Time 2026-05-08 05:27
Airport Domingo Faustino Sarmiento Airport (SANU)
Time Latitude Longitude Altitude Speed Heading
2026-05-08 02:58 -34.55804 -58.41246 26 ft 0 kts 40°
2026-05-08 03:43 -34.55812 -58.41253 26 ft 4 kts 29°
2026-05-08 03:43 -34.55834 -58.41257 26 ft 4 kts 335°
2026-05-08 03:43 -34.55855 -58.41239 26 ft 4 kts 313°
2026-05-08 03:43 -34.55873 -58.41214 26 ft 3 kts 310°
2026-05-08 03:44 -34.55875 -58.41212 26 ft 2 kts 310°
2026-05-08 03:47 -34.55870 -58.41219 26 ft 3 kts 310°
2026-05-08 03:47 -34.55854 -58.41255 26 ft 7 kts 278°
2026-05-08 03:48 -34.55891 -58.41297 26 ft 9 kts 199°
2026-05-08 03:48 -34.55945 -58.41262 26 ft 9 kts 127°
2026-05-08 03:48 -34.55983 -58.41200 26 ft 9 kts 127°
2026-05-08 03:48 -34.56020 -58.41140 26 ft 9 kts 126°
2026-05-08 03:49 -34.56058 -58.41077 26 ft 10 kts 127°
2026-05-08 03:49 -34.56110 -58.40995 26 ft 14 kts 130°
2026-05-08 03:49 -34.56160 -58.40893 26 ft 14 kts 105°
2026-05-08 03:49 -34.56215 -58.40803 26 ft 13 kts 136°
2026-05-08 03:50 -34.56280 -58.40727 26 ft 13 kts 136°
2026-05-08 03:50 -34.56348 -58.40658 28 ft 13 kts 149°
2026-05-08 03:50 -34.56417 -58.40647 24 ft 8 kts 214°
2026-05-08 03:50 -34.56411 -58.40699 27 ft 7 kts 302°
2026-05-08 03:51 -34.56385 -58.40747 25 ft 7 kts 304°
2026-05-08 03:51 -34.56359 -58.40793 25 ft 7 kts 304°
2026-05-08 03:51 -34.56216 -58.41051 27 ft 80 kts 304°
2026-05-08 03:51 -34.55749 -58.41890 25 ft 158 kts 303°
2026-05-08 03:52 -34.55012 -58.43104 521 ft 190 kts 306°
2026-05-08 03:52 -34.54225 -58.44387 1657 ft 183 kts 310°
2026-05-08 03:52 -34.53101 -58.45170 2624 ft 202 kts 343°
2026-05-08 03:52 -34.51564 -58.45127 2827 ft 242 kts
2026-05-08 03:53 -34.50015 -58.44273 3509 ft 249 kts 24°
2026-05-08 03:53 -34.48488 -58.43186 3865 ft 270 kts 27°
2026-05-08 03:53 -34.46841 -58.41953 4435 ft 282 kts 27°
2026-05-08 03:53 -34.45158 -58.40667 4873 ft 287 kts 29°
2026-05-08 03:54 -34.43456 -58.39353 4826 ft 292 kts 29°
2026-05-08 03:54 -34.41748 -58.38031 4852 ft 289 kts 29°
2026-05-08 03:54 -34.40014 -58.36832 5345 ft 286 kts 15°
2026-05-08 03:54 -34.38096 -58.36538 6157 ft 277 kts 348°
2026-05-08 03:55 -34.36264 -58.37131 6971 ft 270 kts 328°
2026-05-08 03:55 -34.34683 -58.38320 7813 ft 268 kts 321°
2026-05-08 03:55 -34.33123 -58.39605 8493 ft 276 kts 321°
2026-05-08 03:55 -34.31523 -58.40924 9199 ft 281 kts 321°
2026-05-08 03:56 -34.29893 -58.42262 9938 ft 285 kts 322°
2026-05-08 03:56 -34.28190 -58.43656 10212 ft 308 kts 322°
2026-05-08 03:56 -34.26345 -58.45162 10408 ft 331 kts 323°
2026-05-08 03:56 -34.24382 -58.46754 10748 ft 346 kts 323°
2026-05-08 03:57 -34.22383 -58.48367 11371 ft 352 kts 323°
2026-05-08 03:57 -34.20345 -58.50011 12170 ft 352 kts 323°
2026-05-08 03:57 -34.18296 -58.51663 12889 ft 355 kts 324°
2026-05-08 03:57 -34.16240 -58.53324 13620 ft 356 kts 324°
2026-05-08 03:58 -34.14408 -58.55332 14294 ft 358 kts 305°
2026-05-08 03:58 -34.13296 -58.58011 15002 ft 360 kts 288°
2026-05-08 03:58 -34.12856 -58.61003 15587 ft 368 kts 272°
2026-05-08 03:58 -34.13111 -58.64103 16155 ft 374 kts 264°
2026-05-08 03:59 -34.13495 -58.67229 16692 ft 380 kts 264°
2026-05-08 03:59 -34.13885 -58.70403 17251 ft 383 kts 264°
2026-05-08 03:59 -34.14264 -58.73598 17817 ft 387 kts 265°
2026-05-08 03:59 -34.14629 -58.76794 18340 ft 390 kts 265°
2026-05-08 04:00 -34.14994 -58.80052 18902 ft 393 kts 265°
2026-05-08 04:00 -34.15360 -58.83331 19471 ft 395 kts 266°
2026-05-08 04:00 -34.15726 -58.86631 20040 ft 396 kts 266°
2026-05-08 04:00 -34.16092 -58.89932 20566 ft 398 kts 266°
2026-05-08 04:01 -34.16460 -58.93259 21061 ft 401 kts 266°
2026-05-08 04:01 -34.16689 -58.96612 21547 ft 398 kts 277°
2026-05-08 04:01 -34.16083 -58.99833 22007 ft 393 kts 294°
2026-05-08 04:01 -34.14770 -59.02711 22467 ft 391 kts 308°
2026-05-08 04:02 -34.13018 -59.05230 22882 ft 393 kts 311°
2026-05-08 04:02 -34.11224 -59.07733 23286 ft 396 kts 311°
2026-05-08 04:02 -34.09452 -59.10239 23656 ft 399 kts 310°
2026-05-08 04:02 -34.07661 -59.12810 24023 ft 402 kts 310°
2026-05-08 04:03 -34.05855 -59.15416 24373 ft 405 kts 310°
2026-05-08 04:03 -34.02264 -59.20600 25713 ft 392 kts 309°
2026-05-08 04:03 -34.00537 -59.23089 26633 ft 380 kts 309°
2026-05-08 04:04 -33.98868 -59.25490 27509 ft 370 kts 309°
2026-05-08 04:04 -33.97218 -59.27866 27956 ft 371 kts 308°
2026-05-08 04:04 -33.95554 -59.30264 28191 ft 376 kts 308°
2026-05-08 04:04 -33.93863 -59.32698 28442 ft 381 kts 308°
2026-05-08 04:05 -33.92155 -59.35155 28756 ft 383 kts 308°
2026-05-08 04:05 -33.90436 -59.37626 29100 ft 385 kts 308°
2026-05-08 04:05 -33.88714 -59.40096 29405 ft 388 kts 307°
2026-05-08 04:05 -33.86974 -59.42592 29707 ft 390 kts 307°
2026-05-08 04:06 -33.85247 -59.45067 29970 ft 393 kts 307°
2026-05-08 04:06 -33.83482 -59.47596 30222 ft 396 kts 307°
2026-05-08 04:06 -33.81708 -59.50136 30521 ft 397 kts 307°
2026-05-08 04:06 -33.79921 -59.52691 30832 ft 398 kts 307°
2026-05-08 04:07 -33.78134 -59.55246 31111 ft 400 kts 307°
2026-05-08 04:07 -33.76336 -59.57813 31373 ft 402 kts 308°
2026-05-08 04:07 -33.74530 -59.60392 31613 ft 404 kts 308°
2026-05-08 04:07 -33.72715 -59.62981 31878 ft 405 kts 308°
2026-05-08 04:08 -33.70895 -59.65574 32129 ft 407 kts 308°
2026-05-08 04:08 -33.69060 -59.68185 32318 ft 410 kts 308°
2026-05-08 04:08 -33.67222 -59.70799 32594 ft 410 kts 308°
2026-05-08 04:08 -33.65378 -59.73417 32854 ft 411 kts 309°
2026-05-08 04:09 -33.63526 -59.76040 33064 ft 412 kts 309°
2026-05-08 04:09 -33.61667 -59.78675 33239 ft 414 kts 309°
2026-05-08 04:09 -33.59820 -59.81287 33393 ft 417 kts 309°
2026-05-08 04:09 -33.57945 -59.83938 33638 ft 417 kts 309°
2026-05-08 04:10 -33.56063 -59.86599 33769 ft 419 kts 309°
2026-05-08 04:10 -33.54172 -59.89276 33769 ft 423 kts 309°
2026-05-08 04:10 -33.50334 -59.94694 33776 ft 427 kts 309°
2026-05-08 04:11 -33.46489 -60.00115 33795 ft 427 kts 309°
2026-05-08 04:11 -33.42631 -60.05540 33804 ft 427 kts 308°
2026-05-08 04:12 -33.38768 -60.10970 33818 ft 428 kts 308°
2026-05-08 04:12 -33.34929 -60.16357 33829 ft 429 kts 308°
2026-05-08 04:13 -33.31063 -60.21777 33831 ft 428 kts 308°
2026-05-08 04:13 -33.27184 -60.27199 33839 ft 429 kts 308°
2026-05-08 04:14 -33.23298 -60.32631 33847 ft 430 kts 307°
2026-05-08 04:14 -33.19400 -60.38072 33843 ft 431 kts 307°
2026-05-08 04:15 -33.15498 -60.43507 33855 ft 431 kts 307°
2026-05-08 04:15 -33.11587 -60.48949 33849 ft 432 kts 307°
2026-05-08 04:16 -33.07667 -60.54392 33853 ft 432 kts 307°
2026-05-08 04:16 -33.03773 -60.59792 33852 ft 432 kts 307°
2026-05-08 04:17 -32.99855 -60.65217 33856 ft 431 kts 306°
2026-05-08 04:17 -32.95943 -60.70631 33861 ft 431 kts 306°
2026-05-08 04:18 -32.92192 -60.76158 33850 ft 425 kts 297°
2026-05-08 04:18 -32.89832 -60.82517 33855 ft 417 kts 282°
2026-05-08 04:19 -32.88753 -60.89257 33858 ft 414 kts 277°
2026-05-08 04:19 -32.87751 -60.95961 33860 ft 414 kts 277°
2026-05-08 04:20 -32.86719 -61.02697 33861 ft 414 kts 277°
2026-05-08 04:20 -32.85676 -61.09429 33858 ft 413 kts 277°
2026-05-08 04:21 -32.84628 -61.16150 33864 ft 413 kts 277°
2026-05-08 04:21 -32.83581 -61.22849 33863 ft 412 kts 277°
2026-05-08 04:22 -32.82707 -61.28421 33859 ft 411 kts 277°
2026-05-08 04:22 -32.81657 -61.35099 33864 ft 411 kts 277°
2026-05-08 04:23 -32.80604 -61.41762 33870 ft 410 kts 277°
2026-05-08 04:23 -32.79553 -61.48404 33868 ft 408 kts 277°
2026-05-08 04:24 -32.78496 -61.55043 33871 ft 407 kts 277°
2026-05-08 04:24 -32.77443 -61.61640 33870 ft 406 kts 277°
2026-05-08 04:25 -32.76393 -61.68194 33873 ft 405 kts 277°
2026-05-08 04:25 -32.75337 -61.74769 33878 ft 404 kts 277°
2026-05-08 04:26 -32.74280 -61.81320 33882 ft 404 kts 277°
2026-05-08 04:26 -32.73217 -61.87891 33881 ft 403 kts 277°
2026-05-08 04:27 -32.72158 -61.94416 33880 ft 403 kts 277°
2026-05-08 04:27 -32.71093 -62.00952 33885 ft 402 kts 277°
2026-05-08 04:28 -32.70034 -62.07434 33891 ft 402 kts 276°
2026-05-08 04:28 -32.68960 -62.13984 33885 ft 401 kts 276°
2026-05-08 04:29 -32.67864 -62.20427 33886 ft 401 kts 277°
2026-05-08 04:29 -32.66685 -62.26900 33894 ft 401 kts 277°
2026-05-08 04:30 -32.65500 -62.33356 33899 ft 400 kts 277°
2026-05-08 04:30 -32.64322 -62.39816 33899 ft 401 kts 277°
2026-05-08 04:31 -32.63141 -62.46281 33898 ft 401 kts 277°
2026-05-08 04:31 -32.61960 -62.52750 33901 ft 401 kts 277°
2026-05-08 04:32 -32.60773 -62.59233 33906 ft 402 kts 277°
2026-05-08 04:32 -32.59581 -62.65722 33909 ft 403 kts 277°
2026-05-08 04:33 -32.58385 -62.72205 33909 ft 403 kts 277°
2026-05-08 04:33 -32.57192 -62.78663 33909 ft 403 kts 277°
2026-05-08 04:34 -32.55988 -62.85151 33917 ft 403 kts 277°
2026-05-08 04:34 -32.54778 -62.91652 33917 ft 403 kts 277°
2026-05-08 04:35 -32.53566 -62.98147 33919 ft 404 kts 277°
2026-05-08 04:35 -32.52346 -63.04655 33915 ft 404 kts 277°
2026-05-08 04:36 -32.51126 -63.11152 33919 ft 404 kts 277°
2026-05-08 04:36 -32.49910 -63.17603 33925 ft 404 kts 277°
2026-05-08 04:37 -32.48686 -63.24093 33926 ft 403 kts 277°
2026-05-08 04:37 -32.47459 -63.30571 33926 ft 403 kts 276°
2026-05-08 04:38 -32.46228 -63.37055 33929 ft 403 kts 276°
2026-05-08 04:38 -32.44996 -63.43527 33923 ft 403 kts 276°
2026-05-08 04:39 -32.43758 -63.50005 33927 ft 403 kts 276°
2026-05-08 04:39 -32.42517 -63.56473 33929 ft 403 kts 276°
2026-05-08 04:40 -32.41273 -63.62931 33924 ft 403 kts 276°
2026-05-08 04:40 -32.40027 -63.69387 33931 ft 402 kts 276°
2026-05-08 04:41 -32.38785 -63.75805 33937 ft 402 kts 276°
2026-05-08 04:41 -32.37533 -63.82254 33933 ft 401 kts 276°
2026-05-08 04:42 -32.36281 -63.88688 33932 ft 401 kts 276°
2026-05-08 04:42 -32.35027 -63.95112 33937 ft 401 kts 276°
2026-05-08 04:43 -32.33769 -64.01543 33946 ft 401 kts 276°
2026-05-08 04:43 -32.32510 -64.07958 33933 ft 400 kts 276°
2026-05-08 04:44 -32.31247 -64.14372 33934 ft 400 kts 276°
2026-05-08 04:44 -32.29989 -64.20743 33937 ft 400 kts 276°
2026-05-08 04:45 -32.28723 -64.27139 33951 ft 400 kts 276°
2026-05-08 04:45 -32.27451 -64.33547 33953 ft 400 kts 276°
2026-05-08 04:46 -32.26177 -64.39943 33967 ft 400 kts 276°
2026-05-08 04:46 -32.24896 -64.46359 33965 ft 401 kts 276°
2026-05-08 04:47 -32.23613 -64.52771 33969 ft 402 kts 276°
2026-05-08 04:47 -32.22323 -64.59194 33974 ft 402 kts 276°
2026-05-08 04:48 -32.21028 -64.65623 33971 ft 403 kts 276°
2026-05-08 04:48 -32.19728 -64.72061 33974 ft 403 kts 276°
2026-05-08 04:49 -32.18422 -64.78513 33966 ft 405 kts 276°
2026-05-08 04:49 -32.17111 -64.84971 33977 ft 404 kts 276°
2026-05-08 04:50 -32.15807 -64.91380 33969 ft 404 kts 276°
2026-05-08 04:50 -32.14491 -64.97830 33997 ft 405 kts 276°
2026-05-08 04:51 -32.13163 -65.04319 33978 ft 407 kts 276°
2026-05-08 04:51 -32.11830 -65.10804 33980 ft 407 kts 276°
2026-05-08 04:52 -32.10494 -65.17297 33980 ft 407 kts 276°
2026-05-08 04:52 -32.09157 -65.23774 33984 ft 406 kts 276°
2026-05-08 04:53 -32.07818 -65.30242 33976 ft 405 kts 276°
2026-05-08 04:53 -32.06480 -65.36688 33983 ft 404 kts 276°
2026-05-08 04:54 -32.05149 -65.43089 33991 ft 404 kts 276°
2026-05-08 04:54 -32.03807 -65.49520 33993 ft 404 kts 276°
2026-05-08 04:55 -32.02464 -65.55943 33994 ft 404 kts 276°
2026-05-08 04:55 -32.01119 -65.62354 34017 ft 403 kts 275°
2026-05-08 04:56 -31.99773 -65.68765 34031 ft 402 kts 275°
2026-05-08 04:56 -31.98425 -65.75164 34027 ft 403 kts 275°
2026-05-08 04:57 -31.97071 -65.81573 34029 ft 403 kts 275°
2026-05-08 04:57 -31.95724 -65.87937 34028 ft 403 kts 275°
2026-05-08 04:58 -31.94366 -65.94342 34028 ft 403 kts 275°
2026-05-08 04:58 -31.92999 -66.00756 34030 ft 404 kts 276°
2026-05-08 04:59 -31.91629 -66.07164 34032 ft 404 kts 276°
2026-05-08 04:59 -31.90252 -66.13584 34030 ft 404 kts 276°
2026-05-08 05:00 -31.88873 -66.20001 34024 ft 404 kts 276°
2026-05-08 05:00 -31.87499 -66.26363 33920 ft 396 kts 275°
2026-05-08 05:01 -31.86822 -66.29487 33641 ft 392 kts 275°
2026-05-08 05:01 -31.86153 -66.32579 33387 ft 387 kts 275°
2026-05-08 05:01 -31.85491 -66.35642 33143 ft 385 kts 275°
2026-05-08 05:01 -31.84832 -66.38689 32903 ft 383 kts 275°
2026-05-08 05:02 -31.84175 -66.41728 32649 ft 382 kts 275°
2026-05-08 05:02 -31.83520 -66.44750 32401 ft 381 kts 275°
2026-05-08 05:02 -31.82874 -66.47726 32156 ft 380 kts 275°
2026-05-08 05:02 -31.82221 -66.50729 31892 ft 378 kts 275°
2026-05-08 05:03 -31.81573 -66.53696 31533 ft 372 kts 275°
2026-05-08 05:03 -31.80932 -66.56629 31137 ft 369 kts 275°
2026-05-08 05:03 -31.80295 -66.59550 30741 ft 366 kts 275°
2026-05-08 05:03 -31.79664 -66.62442 30336 ft 363 kts 275°
2026-05-08 05:04 -31.79038 -66.65304 29940 ft 360 kts 275°
2026-05-08 05:04 -31.78416 -66.68142 29542 ft 357 kts 275°
2026-05-08 05:04 -31.77806 -66.70964 29131 ft 353 kts 273°
2026-05-08 05:04 -31.77406 -66.73762 28728 ft 344 kts 269°
2026-05-08 05:05 -31.77089 -66.76501 28332 ft 341 kts 269°
2026-05-08 05:05 -31.76770 -66.79253 27936 ft 338 kts 269°
2026-05-08 05:05 -31.76452 -66.81981 27537 ft 336 kts 269°
2026-05-08 05:05 -31.76135 -66.84690 27142 ft 333 kts 269°
2026-05-08 05:06 -31.75818 -66.87367 26754 ft 330 kts 269°
2026-05-08 05:06 -31.75504 -66.90019 26366 ft 327 kts 269°
2026-05-08 05:06 -31.75190 -66.92655 25982 ft 324 kts 269°
2026-05-08 05:06 -31.74878 -66.95268 25601 ft 321 kts 269°
2026-05-08 05:07 -31.74567 -66.97860 25222 ft 318 kts 269°
2026-05-08 05:07 -31.74259 -67.00428 24847 ft 316 kts 270°
2026-05-08 05:07 -31.73952 -67.02973 24473 ft 314 kts 270°
2026-05-08 05:07 -31.73648 -67.05503 24100 ft 311 kts 270°
2026-05-08 05:08 -31.73346 -67.08007 23736 ft 309 kts 270°
2026-05-08 05:08 -31.73045 -67.10497 23365 ft 306 kts 270°
2026-05-08 05:08 -31.72746 -67.12962 22999 ft 304 kts 270°
2026-05-08 05:08 -31.72453 -67.15379 22641 ft 302 kts 270°
2026-05-08 05:09 -31.72158 -67.17807 22281 ft 299 kts 271°
2026-05-08 05:09 -31.71864 -67.20220 21922 ft 297 kts 271°
2026-05-08 05:09 -31.71572 -67.22623 21568 ft 296 kts 271°
2026-05-08 05:09 -31.71279 -67.25024 21214 ft 297 kts 271°
2026-05-08 05:10 -31.70985 -67.27427 20865 ft 299 kts 272°
2026-05-08 05:10 -31.70485 -67.31555 20265 ft 314 kts 272°
2026-05-08 05:10 -31.70070 -67.34946 19737 ft 313 kts 273°
2026-05-08 05:11 -31.69862 -67.36624 19488 ft 312 kts 273°
2026-05-08 05:11 -31.69549 -67.39133 19115 ft 310 kts 273°
2026-05-08 05:11 -31.69240 -67.41627 18747 ft 307 kts 274°
2026-05-08 05:11 -31.68934 -67.44100 18384 ft 305 kts 274°
2026-05-08 05:12 -31.68628 -67.46564 18023 ft 303 kts 274°
2026-05-08 05:12 -31.68325 -67.49007 17669 ft 302 kts 274°
2026-05-08 05:12 -31.68022 -67.51439 17316 ft 300 kts 275°
2026-05-08 05:12 -31.67722 -67.53851 16967 ft 298 kts 275°
2026-05-08 05:13 -31.67422 -67.56256 16618 ft 297 kts 275°
2026-05-08 05:13 -31.67123 -67.58643 16275 ft 295 kts 275°
2026-05-08 05:13 -31.66825 -67.61025 15933 ft 294 kts 275°
2026-05-08 05:13 -31.66530 -67.63385 15595 ft 292 kts 275°
2026-05-08 05:14 -31.66235 -67.65741 15260 ft 290 kts 275°
2026-05-08 05:14 -31.65945 -67.68050 14932 ft 289 kts 275°
2026-05-08 05:14 -31.65652 -67.70377 14602 ft 287 kts 275°
2026-05-08 05:14 -31.65361 -67.72694 14279 ft 286 kts 275°
2026-05-08 05:15 -31.65070 -67.74998 13953 ft 285 kts 275°
2026-05-08 05:15 -31.64781 -67.77291 13628 ft 283 kts 275°
2026-05-08 05:15 -31.64494 -67.79569 13301 ft 282 kts 275°
2026-05-08 05:15 -31.64205 -67.81840 12984 ft 281 kts 276°
2026-05-08 05:16 -31.63918 -67.84096 12673 ft 280 kts 276°
2026-05-08 05:16 -31.63593 -67.86339 12507 ft 279 kts 277°
2026-05-08 05:16 -31.63240 -67.88595 12198 ft 284 kts 278°
2026-05-08 05:16 -31.62874 -67.90911 11884 ft 293 kts 278°
2026-05-08 05:17 -31.62501 -67.93283 11539 ft 296 kts 278°
2026-05-08 05:17 -31.62131 -67.95655 11193 ft 295 kts 278°
2026-05-08 05:17 -31.61758 -67.98018 10831 ft 294 kts 278°
2026-05-08 05:17 -31.61384 -68.00367 10487 ft 292 kts 278°
2026-05-08 05:18 -31.61021 -68.02689 10301 ft 285 kts 278°
2026-05-08 05:18 -31.60666 -68.04952 10174 ft 279 kts 278°
2026-05-08 05:18 -31.60319 -68.07153 10043 ft 271 kts 278°
2026-05-08 05:18 -31.59982 -68.09310 9800 ft 269 kts 279°
2026-05-08 05:19 -31.59548 -68.11413 9504 ft 270 kts 293°
2026-05-08 05:19 -31.58400 -68.13150 9262 ft 271 kts 316°
2026-05-08 05:19 -31.56949 -68.14570 8974 ft 272 kts 319°
2026-05-08 05:19 -31.55478 -68.15957 8679 ft 272 kts 319°
2026-05-08 05:20 -31.54001 -68.17349 8387 ft 272 kts 319°
2026-05-08 05:20 -31.52531 -68.18747 8097 ft 272 kts 319°
2026-05-08 05:20 -31.51068 -68.20145 7811 ft 271 kts 319°
2026-05-08 05:20 -31.49606 -68.21545 7518 ft 271 kts 319°
2026-05-08 05:21 -31.48149 -68.22947 7246 ft 270 kts 319°
2026-05-08 05:21 -31.46699 -68.24339 6946 ft 270 kts 320°
2026-05-08 05:21 -31.45250 -68.25728 6641 ft 270 kts 319°
2026-05-08 05:21 -31.43799 -68.27120 6336 ft 269 kts 320°
2026-05-08 05:22 -31.42362 -68.28497 6063 ft 263 kts 320°
2026-05-08 05:22 -31.40958 -68.29843 5725 ft 258 kts 320°
2026-05-08 05:22 -31.39656 -68.31250 5373 ft 253 kts 305°
2026-05-08 05:22 -31.39071 -68.33122 5088 ft 243 kts 275°
2026-05-08 05:23 -31.39033 -68.35044 4827 ft 237 kts 268°
2026-05-08 05:23 -31.39088 -68.36956 4530 ft 231 kts 267°
2026-05-08 05:23 -31.39142 -68.38801 4253 ft 221 kts 265°
2026-05-08 05:23 -31.39528 -68.40467 4006 ft 206 kts 233°
2026-05-08 05:24 -31.40602 -68.41367 3945 ft 182 kts 192°
2026-05-08 05:24 -31.41840 -68.41639 3953 ft 184 kts 191°
2026-05-08 05:24 -31.43095 -68.41869 3933 ft 181 kts 184°
2026-05-08 05:24 -31.44368 -68.41932 3731 ft 180 kts 180°
2026-05-08 05:25 -31.45564 -68.41939 3641 ft 165 kts 179°
2026-05-08 05:25 -31.46708 -68.41935 3575 ft 163 kts 179°
2026-05-08 05:25 -31.47826 -68.41924 3523 ft 159 kts 179°
2026-05-08 05:25 -31.48930 -68.41913 3322 ft 160 kts 179°
2026-05-08 05:26 -31.50062 -68.41900 3111 ft 161 kts 180°
2026-05-08 05:26 -31.51167 -68.41892 2899 ft 162 kts 181°
2026-05-08 05:26 -31.52300 -68.41898 2724 ft 164 kts 181°
2026-05-08 05:26 -31.53449 -68.41875 2481 ft 165 kts 180°
2026-05-08 05:27 -31.54589 -68.41857 2248 ft 162 kts 181°
2026-05-08 05:27 -31.55698 -68.41847 2056 ft 157 kts 180°
2026-05-08 05:27 -31.56758 -68.41837 1957 ft 135 kts 179°
2026-05-08 05:27 -31.57314 -68.41829 1955 ft 45 kts 179°
2026-05-08 05:28 -31.57487 -68.41828 1959 ft 13 kts 188°
2026-05-08 05:28 -31.57502 -68.41893 1960 ft 9 kts 313°
2026-05-08 05:28 -31.57467 -68.41936 1958 ft 7 kts 314°
2026-05-08 05:28 -31.57434 -68.41976 1957 ft 7 kts 314°
2026-05-08 05:29 -31.57401 -68.42016 1957 ft 7 kts 315°
2026-05-08 05:29 -31.57368 -68.42054 1955 ft 7 kts 314°
2026-05-08 05:29 -31.57336 -68.42092 1958 ft 6 kts 314°
2026-05-08 05:29 -31.57305 -68.42129 1955 ft 6 kts 314°
2026-05-08 05:30 -31.57274 -68.42165 1955 ft 6 kts 320°
2026-05-08 05:30 -31.57235 -68.42186 1957 ft 6 kts 337°
2026-05-08 05:30 -31.57203 -68.42202 1955 ft 0 kts 338°
2026-05-08 05:30 -31.57202 -68.42202 1955 ft 1 kts 337°
2026-05-08 05:31 -31.57198 -68.42204 1955 ft 0 kts 337°